FENGYUN 3B

Satellite information

Favourite Embed

Satellite Type and Status

PAYLOADIN ORBIT

Key statistics

Satellite FENGYUN 3B at a glance.

Uptime

5359

Days in orbit

Revolutions

≈ 14.1

Per day

Orbit

SSO

Sun Synchronous Orbit

Inclination

99.0

Latest

Satellite identification and parameters

Extended collection of information and parameters for FENGYUN 3B.

Object identification

Identified? True

Debris? False

Object name: FENGYUN 3B

International designator: 2010-059A

Object number (NORAD): 37214

Object ID (CCSDS): 37214

Country: PEOPLES REPUBLIC OF CHINA (PRC)

Current information (Y/N): Y

RCS size: LARGE

Orbital parameters

Period: 101.786 minutes

Inclination: 99.0113 deg

SMA: 7221.346 km

Apoapsis: 859.972 km

Periapsis: 826.45 km

RAAN: 226.4836 deg

Eccentricy: 0.002321

Argument of periapsis: 85.4455 deg

Mean anomaly: 19.4938 deg

Mean motion: 14.14736372 rev/day

Mean motion (dot): 0.00000042 rev/day2

B* drag term: 0.000045184 1/REarth

Two-line elements (TLE)

Creation date: July 6, 2025, 10:56 p.m.

Reference frame: TEME

Reference center: EARTH

Epoch: July 6, 2025, 8:09 p.m. UTC

TLE line 0: 0 FENGYUN 3B

TLE line 1: 1 37214U 10059A 25187.83963390 .00000042 00000-0 45184-4 0 9998

TLE line 2: 2 37214 99.0113 226.4836 0023210 85.4455 19.4938 14.14736372758633

Live tracking on map

Real-time ground track for satellite FENGYUN 3B.

In-orbit conjunctions

There are no conjunctions computed for FENGYUN 3B, at the moment. Check back to stay up to date, as we update our databases every day.

Go to all conjunctions

Associated space launch

FENGYUN 3B was lifted into orbit during the mission ‘Long March 4C | Feng Yun-3B’, on board a Long March 4C space rocket.

The launch took place on Nov. 4, 2010, 6:37 p.m. from Launch Complex 7.

For more information about the launch, click the button.

Launch to space Long March 4C | Feng Yun-3B
Long March 4C | Feng Yun-3B

Agency: N/A

Status: Launch Successful

Launch date: Nov. 4, 2010, 6:37 p.m. UTC

Rocket: Long March 4C

Launch pad: Launch Complex 7

Location: Taiyuan Satellite Launch Center, People's Republic of China

...

Latest news about this satellite

There are no fresh news available about this satellite. Check back as we update our databases every day.


Newsletter sign-up

Weekly statistics, charts and insights to help you stay on top of the space industry.